Flag for Ukraine Weather past 2 weeks in Odesa, Ukraine

Now
45 °F

Partly sunny.


Feels Like: 37 °F
Forecast: 34 / 43 °F
Wind: 17 mph from Northwest

Location: Odesa Airport

Current Time: Mar 4, 2015 at 1:33:30 PM

Latest Report: Mar 4, 2015 at 1:00 PM


Visibility: N/A

Pressure: 30.15 "Hg

Humidity: 57%

Dew point: 30 °F

Location of OdesaLocation

Historic Weather in Odesa — Graph

°F

Odesa temperature yesterday

Maximum temperature yesterday: 46 °F (at 12:30 PM)
Minimum temperature yesterday: 37 °F (at 11:00 PM)
Average temperature yesterday: 42 °F

Past Weeks' High & Low Weather Summary

 TemperatureHumidityPressure
High54 °F (Feb 27, 2:00 PM)100% (Feb 20, 9:00 PM)30.63 "Hg (Feb 20, 9:00 PM)
Low14 °F (Feb 18, 6:30 AM)34% (Feb 18, 12:30 PM)29.83 "Hg (Mar 3, 3:00 AM)
Average38 °F83%30.09 "Hg
* Reported Feb 17 12:00 Noon — Mar 4 12:00 Noon, Odesa, Weather by CustomWeather, © 2015

Note: Actual official high and low records may vary slightly from our data, if they occured in-between our weather recording intervals... More about our weather records

Advertising

Odesa weather history for previous 24 hours

 ConditionsComfort  
Time TempWeatherWind HumidityBarometerVisibility
12:00 PM
Wed, Mar 4
43 °FPartly sunny.20 mph66%30.15 "HgN/A
11:30 AM43 °FPartly sunny.17 mph61%30.15 "HgN/A
11:00 AM43 °FScattered clouds.17 mph66%30.15 "HgN/A
10:30 AM41 °FPassing clouds.22 mph70%30.15 "HgN/A
10:00 AM41 °FPassing clouds.20 mph70%30.15 "HgN/A
9:30 AM39 °FSunny.20 mph70%30.15 "Hg10 mi
9:00 AM37 °FSunny.17 mph75%30.15 "Hg10 mi
8:30 AM36 °FSunny.15 mph81%30.15 "Hg10 mi
8:00 AM36 °FSunny.15 mph81%30.12 "Hg10 mi
7:30 AM34 °FSunny.17 mph81%30.12 "Hg10 mi
7:00 AM34 °FSunny.17 mph81%30.12 "Hg10 mi
6:30 AM34 °FClear.17 mph81%30.09 "Hg10 mi
6:00 AM34 °FClear.15 mph87%30.09 "Hg10 mi
5:30 AM34 °FClear.17 mph87%30.09 "Hg10 mi
5:00 AM34 °FClear.13 mph87%30.09 "Hg10 mi
4:30 AM34 °FClear.15 mph87%30.07 "Hg10 mi
4:00 AM34 °FClear.10 mph87%30.07 "Hg10 mi
3:30 AM34 °FClear.10 mph87%30.07 "Hg10 mi
3:00 AM36 °FClear.13 mph81%30.04 "Hg10 mi
2:30 AM36 °FClear.13 mph81%30.04 "Hg10 mi
2:00 AM36 °FClear.13 mph75%30.04 "Hg10 mi
1:30 AM36 °FClear.10 mph75%30.04 "Hg10 mi
1:00 AM37 °FPassing clouds.13 mph75%30.01 "HgN/A
12:30 AM37 °FPassing clouds.10 mph75%30.01 "HgN/A
12:00 AM37 °FPassing clouds.13 mph75%29.98 "HgN/A
11:30 PM
Tue, Mar 3
37 °FPassing clouds.13 mph75%29.98 "HgN/A
11:00 PM37 °FPassing clouds.13 mph81%29.98 "HgN/A
10:30 PM39 °FClear.10 mph75%29.98 "Hg10 mi
10:00 PM39 °FClear.10 mph81%29.98 "Hg10 mi
9:30 PM39 °FClear.10 mph81%29.95 "Hg10 mi
9:00 PM39 °FClear.8 mph87%29.95 "Hg10 mi
8:30 PM39 °FOvercast.8 mph87%29.95 "HgN/A
8:00 PM41 °FOvercast.8 mph81%29.95 "HgN/A
7:30 PM41 °FMostly cloudy.10 mph81%29.95 "HgN/A
7:00 PM41 °FMostly cloudy.13 mph81%29.92 "HgN/A
6:30 PM41 °FMostly cloudy.10 mph87%29.92 "HgN/A
6:00 PM41 °FPassing clouds.15 mph87%29.92 "HgN/A
5:30 PM41 °FSprinkles. Broken clouds.15 mph87%29.89 "HgN/A
5:00 PM41 °FSprinkles. Broken clouds.15 mph93%29.89 "HgN/A
4:30 PM41 °FSprinkles. Partly sunny.20 mph93%29.89 "HgN/A
4:00 PM41 °FSprinkles. Partly sunny.22 mph93%29.89 "HgN/A
3:30 PM41 °FSprinkles. Broken clouds.22 mph93%29.86 "HgN/A
3:00 PM41 °FSprinkles. Broken clouds.20 mph93%29.86 "HgN/A
2:30 PM43 °FSprinkles. Fog.17 mph93%29.83 "Hg2 mi
2:00 PM45 °FSprinkles. Broken clouds.15 mph93%29.83 "HgN/A
1:30 PM45 °FLight rain. Mostly cloudy.13 mph93%29.83 "HgN/A
1:00 PM46 °FLight rain. Mostly cloudy.6 mph87%29.83 "HgN/A
Weather by CustomWeather, © 2015

See weather overviewHow to use our weather pages